N5LSN Weather Reports


time (UTC)temp
C
wind
direction
speed
KPH
gust
KPH
rain 1hr
cm
rain 24hr
cm
rain mn
cm
humidity
%
barometer
mb
20260510095026 16 89 0.0 0.0 0.00 0.00 0.00 99 1014.7
20260510094521 16 89 0.0 1.6 0.00 0.00 0.00 99 1014.9
20260510094017 16 37 0.0 0.0 0.00 0.00 0.00 99 1015.0
20260510093513 16 50 0.0 1.6 0.00 0.00 0.00 99 1014.8
20260510093010 16 42 0.0 3.2 0.00 0.00 0.00 99 1014.9
20260510092507 16 24 1.6 3.2 0.00 0.00 0.00 99 1014.9
20260510092006 16 0 0.0 1.6 0.00 0.00 0.00 99 1015.2
20260510091503 16 50 0.0 0.0 0.00 0.00 0.00 99 1015.1
20260510090959 16 66 0.0 1.6 0.00 0.00 0.00 99 1014.9
20260510090457 16 32 0.0 1.6 0.00 0.00 0.00 99 1014.6
20260510085952 16 63 0.0 3.2 0.00 0.00 0.00 99 1014.2
20260510085447 16 310 1.6 3.2 0.00 0.00 0.00 99 1014.6
20260510084943 16 317 0.0 1.6 0.00 0.00 0.00 99 1014.3
20260510084440 16 327 0.0 0.0 0.00 0.00 0.00 99 1014.3
20260510083937 16 319 1.6 3.2 0.00 0.00 0.00 99 1014.2
20260510083434 16 28 0.0 1.6 0.00 0.00 0.00 99 1014.0
20260510082929 16 22 0.0 0.0 0.00 0.00 0.00 99 1013.9
20260510082427 16 22 0.0 0.0 0.00 0.00 0.00 99 1014.0
20260510081926 16 47 0.0 1.6 0.00 0.00 0.00 99 1013.9
20260510081422 16 50 0.0 0.0 0.00 0.00 0.00 99 1013.8
20260510080918 16 103 0.0 1.6 0.00 0.00 0.00 99 1014.0
20260510080417 16 62 1.6 3.2 0.00 0.00 0.00 99 1013.8
20260510075914 16 32 0.0 1.6 0.00 0.00 0.00 99 1013.7
20260510075412 16 37 0.0 0.0 0.00 0.00 0.00 99 1013.7
20260510074909 16 38 0.0 1.6 0.00 0.00 0.00 99 1013.6
20260510074406 16 89 0.0 1.6 0.00 0.00 0.00 99 1013.4
20260510073903 16 49 0.0 3.2 0.00 0.00 0.00 99 1013.8
20260510073358 17 39 1.6 3.2 0.00 0.00 0.00 99 1013.7
20260510072854 16 89 1.6 1.6 0.00 0.00 0.00 99 1013.6
20260510072351 16 32 0.0 0.0 0.00 0.00 0.00 99 1013.6
20260510071847 17 52 1.6 1.6 0.00 0.00 0.00 99 1013.7
20260510071343 17 44 0.0 3.2 0.00 0.00 0.00 99 1013.8
20260510070842 17 63 0.0 3.2 0.00 0.00 0.00 99 1014.0
20260510070339 17 61 1.6 4.8 0.00 0.00 0.00 99 1013.9
20260510065839 17 73 1.6 3.2 0.00 0.00 0.00 99 1013.9
20260510065336 17 52 1.6 3.2 0.00 0.00 0.00 99 1013.9
20260510064832 17 64 3.2 3.2 0.00 0.00 0.00 99 1013.7
20260510064331 17 76 0.0 1.6 0.00 0.00 0.00 99 1013.8
20260510063827 17 70 0.0 1.6 0.00 0.00 0.00 99 1013.8
20260510063323 17 80 0.0 3.2 0.00 0.00 0.00 99 1014.0
20260510062820 17 66 1.6 3.2 0.00 0.00 0.00 99 1014.0
20260510062315 17 51 1.6 3.2 0.00 0.00 0.00 99 1014.3
20260510061811 17 322 0.0 0.0 0.00 0.00 0.00 99 1014.2
20260510061308 17 322 0.0 1.6 0.00 0.00 0.00 99 1014.0
20260510060804 17 55 0.0 1.6 0.00 0.00 0.00 99 1014.0
20260510060301 17 50 0.0 0.0 0.00 0.00 0.00 99 1013.9
20260510055758 17 76 0.0 1.6 0.00 0.00 0.00 99 1013.8
20260510055256 17 76 0.0 1.6 0.00 0.00 0.00 99 1013.7
20260510054756 17 66 0.0 1.6 0.00 0.00 0.00 99 1013.8
20260510054252 17 17 0.0 1.6 0.00 0.00 0.00 99 1013.8
20260510053751 17 1 0.0 1.6 0.00 0.00 0.00 99 1013.8
20260510053242 17 22 0.0 0.0 0.00 0.00 0.00 98 1013.6
20260510052738 17 50 0.0 1.6 0.00 0.00 0.00 98 1013.4
20260510052234 17 13 0.0 0.0 0.00 0.00 0.00 98 1013.6
20260510051730 18 13 0.0 1.6 0.00 0.00 0.00 98 1013.5
20260510051226 18 299 0.0 1.6 0.00 0.00 0.00 98 1013.3
20260510050724 18 44 0.0 0.0 0.00 0.00 0.00 97 1013.4
20260510050221 18 71 0.0 3.2 0.00 0.00 0.00 96 1013.3
20260510045718 18 87 1.6 3.2 0.00 0.00 0.00 96 1013.5
20260510045214 18 75 3.2 3.2 0.00 0.00 0.00 96 1013.5
20260510044710 18 89 0.0 0.0 0.00 0.00 0.00 96 1013.3
20260510044209 18 89 0.0 3.2 0.00 0.00 0.00 96 1013.1
20260510043703 18 63 1.6 3.2 0.00 0.00 0.00 96 1013.3
20260510043200 18 50 0.0 1.6 0.00 0.00 0.00 95 1013.3
20260510042658 18 44 0.0 1.6 0.00 0.00 0.00 95 1013.3
20260510042154 18 40 0.0 3.2 0.00 0.00 0.00 95 1013.2
20260510041651 19 25 1.6 3.2 0.00 0.00 0.00 94 1013.2
20260510041148 19 75 1.6 3.2 0.00 0.00 0.00 94 1012.9
20260510040645 19 79 1.6 3.2 0.00 0.00 0.00 93 1013.2
20260510040142 19 64 0.0 1.6 0.00 0.00 0.00 93 1013.3
20260510035637 19 82 0.0 3.2 0.00 0.00 0.00 93 1013.3
20260510035133 19 50 0.0 1.6 0.00 0.00 0.00 92 1013.4
20260510034630 20 22 0.0 1.6 0.00 0.00 0.00 92 1013.3
20260510034127 20 66 0.0 1.6 0.00 0.00 0.00 91 1013.3
20260510033623 20 113 0.0 1.6 0.00 0.00 0.00 91 1013.2
20260510033121 20 40 0.0 1.6 0.00 0.00 0.00 90 1012.9
20260510032617 20 66 0.0 1.6 0.00 0.00 0.00 90 1013.1
20260510032113 20 68 1.6 3.2 0.00 0.00 0.00 90 1013.0
20260510031608 20 103 0.0 3.2 0.00 0.00 0.00 89 1013.1
20260510031105 20 35 1.6 3.2 0.00 0.00 0.00 89 1012.9
20260510030600 20 84 1.6 3.2 0.00 0.00 0.00 89 1012.8
20260510030057 20 89 0.0 0.0 0.00 0.00 0.00 88 1012.8
20260510025548 21 53 0.0 3.2 0.00 0.00 0.00 88 1012.7
20260510025046 21 89 0.0 0.0 0.00 0.00 0.00 87 1012.6
20260510024542 21 85 1.6 3.2 0.00 0.00 0.00 87 1012.8
20260510024039 21 89 0.0 1.6 0.00 0.00 0.00 86 1012.7
20260510023535 21 129 0.0 1.6 0.00 0.00 0.00 86 1012.4
20260510023033 21 37 0.0 1.6 0.00 0.00 0.00 85 1012.4
20260510022532 21 62 0.0 3.2 0.00 0.00 0.00 84 1012.2
20260510022031 21 89 0.0 1.6 0.00 0.00 0.00 84 1012.1
20260510021528 22 62 0.0 0.0 0.00 0.00 0.00 83 1012.3
20260510021027 22 62 0.0 1.6 0.00 0.00 0.00 82 1012.0
20260510020521 22 110 0.0 4.8 0.00 0.00 0.00 82 1012.4
20260510020017 22 15 0.0 1.6 0.00 0.00 0.00 82 1012.2
20260510015512 22 147 0.0 4.8 0.00 0.00 0.00 82 1012.1
20260510015009 22 116 0.0 3.2 0.00 0.00 0.00 82 1011.9
20260510014506 22 17 0.0 3.2 0.00 0.00 0.00 82 1012.0
20260510014003 22 89 0.0 3.2 0.00 0.00 0.00 81 1011.9
20260510013456 22 37 0.0 0.0 0.00 0.00 0.00 81 1012.0
20260510012953 22 164 0.0 1.6 0.00 0.00 0.00 80 1011.7
20260510012448 22 66 0.0 3.2 0.00 0.00 0.00 80 1011.9
20260510011943 23 51 0.0 4.8 0.00 0.00 0.00 79 1011.6
20260510011437 23 122 0.0 3.2 0.00 0.00 0.00 78 1011.5
20260510010933 23 25 0.0 3.2 0.00 0.00 0.00 78 1011.6
20260510010426 23 25 0.0 1.6 0.00 0.00 0.00 77 1011.4
20260510005922 23 141 0.0 1.6 0.00 0.00 0.00 76 1011.2
20260510005418 23 104 0.0 3.2 0.00 0.00 0.00 75 1011.5
20260510004916 23 103 0.0 3.2 0.00 0.00 0.00 75 1011.5
20260510004413 24 89 0.0 3.2 0.00 0.00 0.00 74 1011.0
20260510003911 25 166 0.0 3.2 0.00 0.00 0.00 73 1011.0
20260510003408 25 15 0.0 1.6 0.00 0.00 0.00 72 1011.0
20260510002907 25 0 0.0 1.6 0.00 0.00 0.00 71 1011.0
20260510002404 25 139 0.0 3.2 0.00 0.00 0.00 72 1010.9
20260510001901 25 113 0.0 3.2 0.00 0.00 0.00 71 1011.1
20260510001358 25 175 0.0 1.6 0.00 0.00 0.00 70 1010.7
20260510000855 25 62 0.0 4.8 0.00 0.00 0.00 70 1010.7
20260510000352 25 103 1.6 4.8 0.00 0.00 0.00 69 1010.8
20260509235848 25 37 0.0 4.8 0.00 0.00 0.00 69 1010.8
20260509235345 25 14 3.2 4.8 0.00 0.00 0.00 69 1010.7
20260509234841 26 351 0.0 4.8 0.00 0.00 0.00 69 1010.6
20260509234338 26 11 3.2 6.4 0.00 0.00 0.00 67 1010.6
20260509233836 26 34 3.2 4.8 0.00 0.00 0.00 66 1010.6
20260509233334 27 176 0.0 4.8 0.00 0.00 0.00 64 1010.6
20260509232829 27 46 0.0 6.4 0.00 0.00 0.00 63 1010.5
20260509232326 27 171 0.0 4.8 0.00 0.00 0.00 64 1010.5
20260509231822 26 156 1.6 9.7 0.00 0.00 0.00 64 1010.4
20260509231319 26 99 3.2 6.4 0.00 0.00 0.00 65 1010.4
20260509230817 26 66 0.0 3.2 0.00 0.00 0.00 64 1010.4
20260509230314 26 170 1.6 11.3 0.00 0.00 0.00 64 1010.3
20260509225809 27 142 3.2 8.0 0.00 0.00 0.00 62 1010.4
20260509225306 27 154 0.0 8.0 0.00 0.00 0.00 62 1010.3
20260509224802 27 359 3.2 11.3 0.00 0.00 0.00 61 1010.4
20260509224258 28 146 6.4 8.0 0.00 0.00 0.00 60 1010.4
20260509223755 27 98 3.2 8.0 0.00 0.00 0.00 63 1010.0
20260509223252 27 153 6.4 12.9 0.00 0.00 0.00 65 1010.0
20260509222749 27 141 4.8 8.0 0.00 0.00 0.00 64 1010.3
20260509222244 27 137 11.3 14.5 0.00 0.00 0.00 63 1010.2
20260509221740 27 191 4.8 11.3 0.00 0.00 0.00 62 1010.1
20260509221237 27 155 4.8 12.9 0.00 0.00 0.00 62 1010.0
20260509220732 27 316 3.2 14.5 0.00 0.00 0.00 63 1010.2
20260509220229 27 128 3.2 8.0 0.00 0.00 0.00 63 1010.1
20260509215725 27 176 4.8 9.7 0.00 0.00 0.00 64 1010.2
20260509215221 27 154 4.8 8.0 0.00 0.00 0.00 62 1009.9
20260509214719 27 146 6.4 8.0 0.00 0.00 0.00 62 1010.1
20260509214215 27 116 0.0 4.8 0.00 0.00 0.00 61 1010.1
20260509213713 28 159 4.8 6.4 0.00 0.00 0.00 61 1010.0
20260509213208 28 155 1.6 11.3 0.00 0.00 0.00 61 1009.9
20260509212706 28 180 4.8 8.0 0.00 0.00 0.00 59 1010.1
20260509212202 28 224 0.0 6.4 0.00 0.00 0.00 62 1010.1
20260509211658 27 156 4.8 11.3 0.00 0.00 0.00 64 1010.3
20260509211155 27 208 3.2 8.0 0.00 0.00 0.00 65 1010.1
20260509210652 27 169 4.8 9.7 0.00 0.00 0.00 63 1010.1
20260509210144 28 157 4.8 9.7 0.00 0.00 0.00 61 1010.1
20260509205639 28 165 4.8 8.0 0.00 0.00 0.00 61 1010.3
20260509205138 28 299 0.0 4.8 0.00 0.00 0.00 57 1010.4
20260509204635 28 254 0.0 11.3 0.00 0.00 0.00 60 1010.3
20260509204131 28 172 3.2 4.8 0.00 0.00 0.00 59 1010.4
20260509203627 27 190 3.2 8.0 0.00 0.00 0.00 59 1010.2
20260509203120 28 208 3.2 6.4 0.00 0.00 0.00 58 1010.7
20260509202619 28 168 1.6 8.0 0.00 0.00 0.00 61 1010.5
20260509202115 28 160 6.4 8.0 0.00 0.00 0.00 57 1010.6
20260509201610 28 252 1.6 8.0 0.00 0.00 0.00 63 1010.8
20260509201109 28 130 0.0 6.4 0.00 0.00 0.00 59 1011.1
20260509200609 28 176 3.2 8.0 0.00 0.00 0.00 61 1011.0
20260509200105 28 154 0.0 8.0 0.00 0.00 0.00 58 1011.1
20260509195600 28 15 4.8 6.4 0.00 0.00 0.00 58 1011.4
20260509195050 27 164 4.8 8.0 0.00 0.00 0.00 60 1011.4
20260509194549 27 193 8.0 11.3 0.00 0.00 0.00 59 1011.4
20260509194047 28 85 1.6 4.8 0.00 0.00 0.00 55 1011.1
20260509193542 28 159 0.0 4.8 0.00 0.00 0.00 56 1011.1
20260509193039 29 216 1.6 6.4 0.00 0.00 0.00 55 1011.2
20260509192536 27 255 3.2 8.0 0.00 0.00 0.00 56 1011.4
20260509192030 27 238 4.8 6.4 0.00 0.00 0.00 57 1011.5
20260509191525 27 330 3.2 6.4 0.00 0.00 0.00 61 1011.4
20260509191021 27 65 4.8 6.4 0.00 0.00 0.00 59 1011.6
20260509190518 27 178 0.0 6.4 0.00 0.00 0.00 60 1011.5
20260509190017 26 50 0.0 4.8 0.00 0.00 0.00 64 1011.4
20260509185513 26 180 0.0 4.8 0.00 0.00 0.00 61 1011.6
20260509185009 26 212 4.8 6.4 0.00 0.00 0.00 61 1011.5
20260509184508 27 27 3.2 4.8 0.00 0.00 0.00 61 1011.4
20260509184004 27 134 4.8 6.4 0.00 0.00 0.00 60 1011.5
20260509183500 28 102 1.6 8.0 0.00 0.00 0.00 60 1011.6
20260509182955 27 315 0.0 4.8 0.00 0.00 0.00 62 1011.8
20260509182451 27 114 0.0 4.8 0.00 0.00 0.00 61 1011.6
20260509181944 27 156 6.4 12.9 0.00 0.00 0.00 61 1011.8
20260509181442 27 214 8.0 9.7 0.00 0.00 0.00 63 1011.6
20260509180939 27 42 1.6 6.4 0.00 0.00 0.00 61 1011.7
20260509180434 27 180 3.2 4.8 0.00 0.00 0.00 61 1011.8
20260509175931 27 297 3.2 6.4 0.00 0.00 0.00 59 1011.9
20260509175427 26 271 4.8 11.3 0.00 0.00 0.00 63 1011.9
20260509174923 27 9 6.4 9.7 0.00 0.00 0.00 63 1011.8
20260509174419 27 87 1.6 4.8 0.00 0.00 0.00 62 1011.9
20260509173915 26 289 4.8 8.0 0.00 0.00 0.00 63 1011.8
20260509173410 26 314 6.4 9.7 0.00 0.00 0.00 63 1012.0
20260509172906 26 27 3.2 4.8 0.00 0.00 0.00 66 1011.9
20260509172403 26 359 4.8 6.4 0.00 0.00 0.00 65 1011.9
20260509171858 26 333 3.2 9.7 0.00 0.00 0.00 66 1012.1
20260509171354 25 6 4.8 9.7 0.00 0.00 0.00 66 1012.2
20260509170846 26 157 4.8 6.4 0.00 0.00 0.00 68 1012.1
20260509170342 25 142 0.0 6.4 0.00 0.00 0.00 68 1012.3
20260509165841 26 330 4.8 8.0 0.00 0.00 0.00 65 1011.9
20260509165331 26 99 1.6 6.4 0.00 0.00 0.00 63 1012.3
20260509164827 26 263 0.0 9.7 0.00 0.00 0.00 63 1012.2
20260509164323 26 296 1.6 6.4 0.00 0.00 0.00 67 1012.1
20260509163820 25 45 1.6 17.7 0.00 0.00 0.00 68 1012.1
20260509163316 25 334 3.2 9.7 0.00 0.00 0.00 68 1011.9
20260509162816 25 318 4.8 12.9 0.00 0.00 0.00 68 1011.8
20260509162309 25 25 8.0 17.7 0.00 0.00 0.00 69 1012.0
20260509161805 25 343 4.8 8.0 0.00 0.00 0.00 69 1012.0
20260509161301 24 10 8.0 8.0 0.00 0.00 0.00 70 1011.8
20260509160756 23 268 6.4 9.7 0.00 0.00 0.00 71 1012.0
20260509160247 25 340 3.2 3.2 0.00 0.00 0.00 72 1011.8
20260509155742 23 285 4.8 12.9 0.00 0.00 0.00 73 1011.9
20260509155239 23 21 3.2 11.3 0.00 0.00 0.00 73 1012.0
20260509154735 24 294 3.2 9.7 0.00 0.00 0.00 71 1012.2
20260509154227 23 336 1.6 4.8 0.00 0.00 0.00 72 1011.8
20260509153724 23 300 6.4 9.7 0.00 0.00 0.00 72 1011.8
20260509153219 23 342 4.8 14.5 0.00 0.00 0.00 73 1012.0
20260509152715 23 356 6.4 11.3 0.00 0.00 0.00 74 1011.8
20260509152212 23 306 0.0 9.7 0.00 0.00 0.00 73 1012.0
20260509151709 23 291 3.2 4.8 0.00 0.00 0.00 72 1012.0
20260509151206 23 119 0.0 4.8 0.00 0.00 0.00 75 1012.0
20260509150704 22 2 0.0 8.0 0.00 0.00 0.00 76 1012.0
20260509150157 22 289 3.2 4.8 0.00 0.00 0.00 75 1012.0
20260509145653 21 324 3.2 9.7 0.00 0.00 0.00 76 1012.0
20260509145148 23 303 1.6 4.8 0.00 0.00 0.00 74 1011.9
20260509144645 21 46 1.6 6.4 0.00 0.00 0.00 78 1011.9
20260509144142 21 9 3.2 8.0 0.00 0.00 0.00 78 1011.9
20260509143639 21 20 4.8 6.4 0.00 0.00 0.00 78 1012.2
20260509143137 21 246 0.0 4.8 0.00 0.00 0.00 81 1012.2
20260509142632 21 178 3.2 6.4 0.00 0.00 0.00 80 1012.3
20260509142129 20 353 0.0 4.8 0.00 0.00 0.00 81 1012.2
20260509141625 20 272 0.0 8.0 0.00 0.00 0.00 83 1012.2
20260509141121 20 320 1.6 6.4 0.00 0.00 0.00 82 1012.2
20260509140618 20 124 0.0 4.8 0.00 0.00 0.00 82 1012.5
20260509140116 20 23 1.6 4.8 0.00 0.00 0.00 82 1012.5
20260509135613 20 194 3.2 4.8 0.00 0.00 0.00 84 1012.3
20260509135112 19 44 0.0 4.8 0.00 0.00 0.00 85 1012.5
20260509134608 19 11 0.0 3.2 0.00 0.00 0.00 86 1012.4
20260509134105 18 307 0.0 3.2 0.00 0.00 0.00 87 1012.4
20260509133602 18 217 0.0 3.2 0.00 0.00 0.00 90 1012.4
20260509133100 18 296 1.6 3.2 0.00 0.00 0.00 88 1012.4
20260509132558 19 186 0.0 3.2 0.00 0.00 0.00 84 1012.4
20260509132056 18 31 0.0 3.2 0.00 0.00 0.00 87 1012.3
20260509131551 18 132 3.2 4.8 0.00 0.00 0.00 87 1012.4
20260509131049 17 126 3.2 6.4 0.00 0.00 0.00 91 1012.2
20260509130544 16 89 1.6 4.8 0.00 0.00 0.00 94 1012.2
20260509130041 16 173 3.2 6.4 0.00 0.00 0.00 93 1012.2
20260509125537 16 127 3.2 6.4 0.00 0.00 0.00 95 1012.5
20260509125034 16 94 0.0 4.8 0.00 0.00 0.00 98 1012.3
20260509124531 15 169 3.2 6.4 0.00 0.00 0.00 99 1012.1
20260509124028 15 150 6.4 8.0 0.00 0.00 0.00 99 1012.2
20260509123526 15 195 3.2 4.8 0.00 0.00 0.00 99 1012.1
20260509123022 14 135 0.0 3.2 0.00 0.00 0.00 99 1012.0
20260509122518 14 113 1.6 3.2 0.00 0.00 0.00 99 1011.9
20260509122015 13 126 0.0 3.2 0.00 0.00 0.00 99 1012.0
20260509121511 13 62 1.6 4.8 0.00 0.00 0.00 99 1011.9
20260509121009 13 35 3.2 4.8 0.00 0.00 0.00 99 1011.7
20260509120507 13 41 3.2 4.8 0.00 0.00 0.00 99 1011.8
20260509120005 13 104 1.6 3.2 0.00 0.00 0.00 99 1011.8
20260509115502 13 63 0.0 3.2 0.00 0.00 0.00 99 1012.0
20260509114959 12 124 0.0 1.6 0.00 0.00 0.00 99 1011.7
20260509114458 12 64 1.6 4.8 0.00 0.00 0.00 99 1011.7
20260509113957 12 59 3.2 4.8 0.00 0.00 0.00 99 1011.5
20260509113454 12 40 3.2 4.8 0.00 0.00 0.00 99 1011.5
20260509112950 12 69 1.6 1.6 0.00 0.00 0.00 99 1011.0
20260509112448 12 126 3.2 4.8 0.00 0.00 0.00 99 1011.5
20260509111944 12 155 3.2 4.8 0.00 0.00 0.00 99 1011.1
20260509111442 12 130 3.2 6.4 0.00 0.00 0.00 99 1011.1
20260509110939 12 120 3.2 4.8 0.00 0.00 0.00 99 1011.1
20260509110435 12 39 1.6 1.6 0.00 0.00 0.00 99 1010.8
20260509105933 12 157 0.0 3.2 0.00 0.00 0.00 99 1010.8
20260509105432 12 77 0.0 1.6 0.00 0.00 0.00 99 1010.6
20260509104928 12 85 3.2 3.2 0.00 0.00 0.00 99 1010.5
20260509104425 13 88 1.6 4.8 0.00 0.00 0.00 99 1010.5
20260509103922 13 65 4.8 6.4 0.00 0.00 0.00 99 1010.4
20260509103419 13 75 3.2 3.2 0.00 0.00 0.00 99 1010.4
20260509102918 13 94 1.6 3.2 0.00 0.00 0.00 99 1010.3
20260509102415 13 125 0.0 3.2 0.00 0.00 0.00 99 1010.2
20260509101911 13 42 1.6 3.2 0.00 0.00 0.00 99 1009.9
20260509101407 12 21 3.2 4.8 0.00 0.00 0.00 99 1010.2
20260509100905 13 119 0.0 3.2 0.00 0.00 0.00 99 1009.9
20260509100402 13 89 0.0 1.6 0.00 0.00 0.00 99 1009.9
20260509095858 13 59 0.0 3.2 0.00 0.00 0.00 99 1010.0
20260509095356 13 29 3.2 3.2 0.00 0.00 0.00 99 1009.9